Find Qianfan Jigui 01-06

NORAD ID: 60384 Int'l Des: 2024-140 Owner: YUANX Country: CN Constellation: qianfan operational
LEOCIRCULARPOLAR

リアルタイム位置

3D地球を読み込み中...

Qianfan Jigui 01-06について

説明を読み込み中...

次回通過

Passes for default location (London). Set your location on the main map for personalized predictions.

高度履歴

Loading altitude history...

軌道要素

1 60384U 24140F 26104.57238383 .00000064 00000-0 79805-4 0 9997
2 60384 88.9683 286.2973 0012653 192.9887 167.0940 13.51005380 84086
Epoch: Apr 14, 2026 • Age: 9 hours

現在のステータス

高度 1080.3 km
速度 7.31 km/s
衛星直下点 17.60°N, 102.8°E
打ち上げ日 Aug 6, 2024
運用期間 1.6 years
タイプ internet

技術仕様

分類 Payload
質量 267.00 kg
乾燥質量 267.00 kg
総質量 267.00 kg
長さ 0.30 m
直径 3.00 m
スパン 10.00 m
形状 Box+pan
製造者 SECM
バスタイプ Qianfan
フェーズステータス In Orbit
所有者/国 YUANX/CN

Most Searched